Time,TemperatureF,DewpointF,PressureIn,WindDirection,WindDirectionDegrees,WindSpeedMPH,WindSpeedGustMPH,Humidity,HourlyPrecipIn,Conditions,Clouds,dailyrainin,SoftwareType,DateUTC
2013-02-13 00:00:00,49.8,49.0,29.86,ENE,66,0.0,4.0,97,0.00,,,0.00,WeatherCatV1.02B3,2013-02-13 06:00:00,
2013-02-13 00:05:00,49.8,49.0,29.86,NE,45,0.0,3.0,97,0.00,,,0.00,WeatherCatV1.02B3,2013-02-13 06:05:00,
2013-02-13 00:10:00,49.9,49.1,29.87,ENE,73,1.0,6.0,97,0.00,,,0.00,WeatherCatV1.02B3,2013-02-13 06:10:00,
2013-02-13 00:15:00,49.8,49.0,29.86,ENE,76,0.0,5.0,97,0.00,,,0.00,WeatherCatV1.02B3,2013-02-13 06:15:00,
2013-02-13 00:20:00,49.8,49.0,29.86,ENE,74,0.0,1.0,97,0.00,,,0.00,WeatherCatV1.02B3,2013-02-13 06:20:00,
2013-02-13 00:25:00,49.8,49.0,29.86,East,80,3.0,4.0,97,0.00,,,0.00,WeatherCatV1.02B3,2013-02-13 06:25:00,
2013-02-13 00:30:00,49.7,48.9,29.86,ENE,67,1.0,2.0,97,0.00,,,0.00,WeatherCatV1.02B3,2013-02-13 06:30:00,
2013-02-13 00:35:00,49.7,48.9,29.86,NE,51,0.0,2.0,97,0.00,,,0.00,WeatherCatV1.02B3,2013-02-13 06:35:00,
2013-02-13 00:40:00,49.6,48.8,29.85,ENE,65,1.0,2.0,97,0.00,,,0.00,WeatherCatV1.02B3,2013-02-13 06:40:00,
2013-02-13 00:45:00,49.5,48.7,29.86,ENE,74,0.0,2.0,97,0.00,,,0.00,WeatherCatV1.02B3,2013-02-13 06:45:00,
2013-02-13 00:50:00,49.4,48.6,29.85,ENE,62,2.0,4.0,97,0.00,,,0.00,WeatherCatV1.02B3,2013-02-13 06:50:00,
2013-02-13 00:55:00,49.4,48.6,29.85,ENE,62,3.0,3.0,97,0.00,,,0.00,WeatherCatV1.02B3,2013-02-13 06:55:00,
2013-02-13 01:00:00,49.4,48.6,29.86,ENE,67,0.0,7.0,97,0.00,,,0.00,WeatherCatV1.02B3,2013-02-13 07:00:00,
2013-02-13 01:05:00,49.2,48.4,29.86,NNE,28,1.0,3.0,97,0.00,,,0.00,WeatherCatV1.02B3,2013-02-13 07:05:00,
2013-02-13 01:10:00,49.0,48.2,29.86,NNE,28,0.0,3.0,97,0.00,,,0.00,WeatherCatV1.02B3,2013-02-13 07:10:00,
2013-02-13 01:15:00,49.0,48.2,29.87,NNE,30,0.0,1.0,97,0.00,,,0.00,WeatherCatV1.02B3,2013-02-13 07:15:00,
2013-02-13 01:20:00,49.0,48.2,29.86,ENE,61,0.0,4.0,97,0.00,,,0.00,WeatherCatV1.02B3,2013-02-13 07:20:00,
2013-02-13 01:25:00,49.0,48.2,29.86,ENE,76,3.0,4.0,97,0.00,,,0.00,WeatherCatV1.02B3,2013-02-13 07:25:00,
2013-02-13 01:30:00,49.0,48.2,29.86,ENE,58,1.0,2.0,97,0.00,,,0.00,WeatherCatV1.02B3,2013-02-13 07:30:00,
2013-02-13 01:35:00,48.8,48.0,29.86,NNE,16,0.0,2.0,97,0.00,,,0.00,WeatherCatV1.02B3,2013-02-13 07:35:00,
2013-02-13 01:40:00,48.8,48.0,29.86,NE,47,1.0,2.0,97,0.00,,,0.00,WeatherCatV1.02B3,2013-02-13 07:40:00,
2013-02-13 01:45:00,48.7,47.9,29.86,North,10,0.0,2.0,97,0.00,,,0.00,WeatherCatV1.02B3,2013-02-13 07:45:00,
2013-02-13 01:50:00,48.6,47.8,29.86,NE,44,1.0,3.0,97,0.00,,,0.00,WeatherCatV1.02B3,2013-02-13 07:50:00,
2013-02-13 01:52:00,48.6,47.8,29.86,NE,44,1.0,3.0,97,0.00,,,0.00,WeatherCatV1.02B3,2013-02-13 07:52:00,
2013-02-13 01:57:00,48.5,47.7,29.86,NE,50,1.0,1.0,97,0.00,,,0.00,WeatherCatV1.02B3,2013-02-13 07:57:00,
2013-02-13 02:02:00,48.4,47.6,29.86,NNE,24,0.0,4.0,97,0.00,,,0.00,WeatherCatV1.02B3,2013-02-13 08:02:00,
2013-02-13 02:07:00,48.3,47.5,29.86,ENE,61,2.0,6.0,97,0.00,,,0.00,WeatherCatV1.02B3,2013-02-13 08:07:00,
2013-02-13 02:12:00,48.2,47.1,29.86,NE,48,1.0,1.0,96,0.00,,,0.00,WeatherCatV1.02B3,2013-02-13 08:12:00,
2013-02-13 02:17:00,48.1,47.0,29.86,ENE,68,3.0,4.0,96,0.00,,,0.00,WeatherCatV1.02B3,2013-02-13 08:17:00,
2013-02-13 02:22:00,48.1,47.0,29.87,NE,39,0.0,3.0,96,0.00,,,0.00,WeatherCatV1.02B3,2013-02-13 08:22:00,
2013-02-13 02:27:00,48.1,47.0,29.87,NNW,345,0.0,5.0,96,0.00,,,0.00,WeatherCatV1.02B3,2013-02-13 08:27:00,
2013-02-13 02:32:00,47.9,46.8,29.87,NE,35,0.0,7.0,96,0.00,,,0.00,WeatherCatV1.02B3,2013-02-13 08:32:00,
2013-02-13 02:37:00,47.8,46.7,29.87,NE,42,0.0,3.0,96,0.00,,,0.00,WeatherCatV1.02B3,2013-02-13 08:37:00,
2013-02-13 02:42:00,47.7,46.6,29.87,ENE,66,0.0,5.0,96,0.00,,,0.00,WeatherCatV1.02B3,2013-02-13 08:42:00,
2013-02-13 02:47:00,47.6,46.5,29.88,NE,55,1.0,8.0,96,0.00,,,0.00,WeatherCatV1.02B3,2013-02-13 08:47:00,
2013-02-13 02:52:00,47.5,46.4,29.88,NE,55,0.0,2.0,96,0.00,,,0.00,WeatherCatV1.02B3,2013-02-13 08:52:00,
2013-02-13 02:57:00,47.5,46.4,29.88,NE,55,0.0,1.0,96,0.00,,,0.00,WeatherCatV1.02B3,2013-02-13 08:57:00,
2013-02-13 03:02:00,47.4,46.3,29.89,NNE,33,0.0,3.0,96,0.00,,,0.00,WeatherCatV1.02B3,2013-02-13 09:02:00,
2013-02-13 03:07:00,47.3,45.9,29.90,ENE,63,0.0,1.0,95,0.00,,,0.00,WeatherCatV1.02B3,2013-02-13 09:07:00,
2013-02-13 03:12:00,47.3,45.9,29.89,ENE,67,3.0,5.0,95,0.00,,,0.00,WeatherCatV1.02B3,2013-02-13 09:12:00,
2013-02-13 03:17:00,47.3,45.9,29.89,ENE,63,0.0,2.0,95,0.00,,,0.00,WeatherCatV1.02B3,2013-02-13 09:17:00,
2013-02-13 03:22:00,47.4,46.0,29.90,ENE,64,0.0,4.0,95,0.00,,,0.00,WeatherCatV1.02B3,2013-02-13 09:22:00,
2013-02-13 03:27:00,47.5,46.1,29.91,ENE,72,1.0,5.0,95,0.00,,,0.00,WeatherCatV1.02B3,2013-02-13 09:27:00,
2013-02-13 03:32:00,47.5,46.1,29.91,ENE,74,6.0,8.0,95,0.00,,,0.00,WeatherCatV1.02B3,2013-02-13 09:32:00,
2013-02-13 03:37:00,47.6,46.2,29.91,SE,132,5.0,11.0,95,0.00,,,0.00,WeatherCatV1.02B3,2013-02-13 09:37:00,
2013-02-13 03:42:00,47.6,46.0,29.91,ENE,68,3.0,10.0,94,0.00,,,0.00,WeatherCatV1.02B3,2013-02-13 09:42:00,
2013-02-13 03:47:00,47.7,46.1,29.91,NNE,20,1.0,4.0,94,0.00,,,0.00,WeatherCatV1.02B3,2013-02-13 09:47:00,
2013-02-13 03:52:00,47.7,46.1,29.91,ENE,69,4.0,8.0,94,0.00,,,0.00,WeatherCatV1.02B3,2013-02-13 09:52:00,
2013-02-13 03:57:00,47.6,46.0,29.91,NNE,15,0.0,8.0,94,0.00,,,0.00,WeatherCatV1.02B3,2013-02-13 09:57:00,
2013-02-13 04:02:00,47.6,46.0,29.93,East,90,1.0,11.0,94,0.00,,,0.00,WeatherCatV1.02B3,2013-02-13 10:02:00,
2013-02-13 04:07:00,47.6,45.7,29.92,NNE,26,3.0,8.0,93,0.00,,,0.00,WeatherCatV1.02B3,2013-02-13 10:07:00,
2013-02-13 04:12:00,47.6,45.4,29.92,ENE,62,3.0,10.0,92,0.00,,,0.00,WeatherCatV1.02B3,2013-02-13 10:12:00,
2013-02-13 04:17:00,47.6,45.4,29.92,North,355,3.0,6.0,92,0.00,,,0.00,WeatherCatV1.02B3,2013-02-13 10:17:00,
2013-02-13 04:22:00,47.5,45.3,29.92,NNE,27,1.0,7.0,92,0.00,,,0.00,WeatherCatV1.02B3,2013-02-13 10:22:00,
2013-02-13 04:27:00,47.5,45.3,29.93,NNE,31,1.0,6.0,92,0.00,,,0.00,WeatherCatV1.02B3,2013-02-13 10:27:00,
2013-02-13 04:32:00,47.4,45.2,29.93,East,96,0.0,7.0,92,0.00,,,0.00,WeatherCatV1.02B3,2013-02-13 10:32:00,
2013-02-13 04:37:00,47.4,45.2,29.93,ENE,61,4.0,8.0,92,0.00,,,0.00,WeatherCatV1.02B3,2013-02-13 10:37:00,
2013-02-13 04:42:00,47.3,45.1,29.94,NE,44,4.0,6.0,92,0.00,,,0.00,WeatherCatV1.02B3,2013-02-13 10:42:00,
2013-02-13 04:47:00,47.2,44.7,29.94,ENE,63,4.0,9.0,91,0.00,,,0.00,WeatherCatV1.02B3,2013-02-13 10:47:00,
2013-02-13 04:52:00,47.2,44.7,29.93,East,90,6.0,11.0,91,0.00,,,0.00,WeatherCatV1.02B3,2013-02-13 10:52:00,
2013-02-13 04:57:00,47.2,44.7,29.93,ENE,64,1.0,11.0,91,0.00,,,0.00,WeatherCatV1.02B3,2013-02-13 10:57:00,
2013-02-13 05:02:00,47.1,44.6,29.93,ENE,77,3.0,5.0,91,0.00,,,0.00,WeatherCatV1.02B3,2013-02-13 11:02:00,
2013-02-13 05:07:00,47.0,44.8,29.93,ENE,63,5.0,5.0,92,0.00,,,0.00,WeatherCatV1.02B3,2013-02-13 11:07:00,
2013-02-13 05:12:00,46.8,44.6,29.93,East,101,4.0,6.0,92,0.00,,,0.00,WeatherCatV1.02B3,2013-02-13 11:12:00,
2013-02-13 05:17:00,46.7,44.8,29.94,East,80,2.0,3.0,93,0.00,,,0.00,WeatherCatV1.02B3,2013-02-13 11:17:00,
2013-02-13 05:22:00,46.5,44.6,29.94,ENE,69,3.0,7.0,93,0.00,,,0.00,WeatherCatV1.02B3,2013-02-13 11:22:00,
2013-02-13 05:27:00,46.3,44.4,29.94,NNE,21,4.0,4.0,93,0.00,,,0.00,WeatherCatV1.02B3,2013-02-13 11:27:00,
2013-02-13 05:32:00,46.2,44.0,29.95,ENE,76,4.0,7.0,92,0.00,,,0.00,WeatherCatV1.02B3,2013-02-13 11:32:00,
2013-02-13 05:37:00,46.2,44.0,29.95,ENE,63,4.0,8.0,92,0.00,,,0.00,WeatherCatV1.02B3,2013-02-13 11:37:00,
2013-02-13 05:42:00,46.0,43.8,29.95,East,85,2.0,4.0,92,0.00,,,0.00,WeatherCatV1.02B3,2013-02-13 11:42:00,
2013-02-13 05:48:00,46.0,43.8,29.95,East,89,4.0,8.0,92,0.00,,,0.00,WeatherCatV1.02B3,2013-02-13 11:48:00,
2013-02-13 05:53:00,45.9,43.7,29.94,South,180,5.0,6.0,92,0.00,,,0.00,WeatherCatV1.02B3,2013-02-13 11:53:00,
2013-02-13 05:58:00,45.9,43.4,29.94,ENE,65,1.0,8.0,91,0.00,,,0.00,WeatherCatV1.02B3,2013-02-13 11:58:00,
2013-02-13 06:03:00,45.9,43.4,29.95,ENE,75,2.0,6.0,91,0.00,,,0.00,WeatherCatV1.02B3,2013-02-13 12:03:00,
2013-02-13 06:08:00,45.9,43.4,29.95,East,79,1.0,7.0,91,0.00,,,0.00,WeatherCatV1.02B3,2013-02-13 12:08:00,
2013-02-13 06:13:00,45.9,43.4,29.95,NE,49,0.0,4.0,91,0.00,,,0.00,WeatherCatV1.02B3,2013-02-13 12:13:00,
2013-02-13 06:18:00,45.9,43.4,29.95,East,97,0.0,2.0,91,0.00,,,0.00,WeatherCatV1.02B3,2013-02-13 12:18:00,
2013-02-13 06:23:00,45.8,43.3,29.95,East,85,4.0,7.0,91,0.00,,,0.00,WeatherCatV1.02B3,2013-02-13 12:23:00,
2013-02-13 06:28:00,45.8,43.3,29.96,East,81,2.0,4.0,91,0.00,,,0.00,WeatherCatV1.02B3,2013-02-13 12:28:00,
2013-02-13 06:33:00,45.8,43.3,29.96,ESE,107,5.0,10.0,91,0.00,,,0.00,WeatherCatV1.02B3,2013-02-13 12:33:00,
2013-02-13 06:38:00,45.8,43.3,29.96,South,170,1.0,8.0,91,0.00,,,0.00,WeatherCatV1.02B3,2013-02-13 12:38:00,
2013-02-13 06:43:00,45.8,43.3,29.96,NE,42,0.0,3.0,91,0.00,,,0.00,WeatherCatV1.02B3,2013-02-13 12:43:00,
2013-02-13 06:48:00,45.8,43.3,29.96,East,86,4.0,8.0,91,0.00,,,0.00,WeatherCatV1.02B3,2013-02-13 12:48:00,
2013-02-13 06:53:00,45.7,43.2,29.96,ENE,68,5.0,8.0,91,0.00,,,0.00,WeatherCatV1.02B3,2013-02-13 12:53:00,
2013-02-13 06:58:00,45.8,43.0,29.97,ENE,63,2.0,5.0,90,0.00,,,0.00,WeatherCatV1.02B3,2013-02-13 12:58:00,
2013-02-13 07:03:00,45.8,43.0,29.97,East,93,1.0,3.0,90,0.00,,,0.00,WeatherCatV1.02B3,2013-02-13 13:03:00,
2013-02-13 07:08:00,45.8,43.0,29.97,East,100,0.0,7.0,90,0.00,,,0.00,WeatherCatV1.02B3,2013-02-13 13:08:00,
2013-02-13 07:13:00,45.7,42.9,29.96,ENE,78,3.0,6.0,90,0.00,,,0.00,WeatherCatV1.02B3,2013-02-13 13:13:00,
2013-02-13 07:18:00,45.7,42.9,29.96,East,82,1.0,4.0,90,0.00,,,0.00,WeatherCatV1.02B3,2013-02-13 13:18:00,
2013-02-13 07:23:00,45.7,42.9,29.96,East,96,4.0,5.0,90,0.00,,,0.00,WeatherCatV1.02B3,2013-02-13 13:23:00,
2013-02-13 07:28:00,45.7,42.9,29.96,East,81,2.0,5.0,90,0.00,,,0.00,WeatherCatV1.02B3,2013-02-13 13:28:00,
2013-02-13 07:33:00,45.7,42.9,29.97,ENE,77,0.0,3.0,90,0.00,,,0.00,WeatherCatV1.02B3,2013-02-13 13:33:00,
2013-02-13 07:38:00,45.8,43.0,29.97,East,92,1.0,4.0,90,0.00,,,0.00,WeatherCatV1.02B3,2013-02-13 13:38:00,
2013-02-13 07:43:00,45.8,43.0,29.97,East,84,2.0,2.0,90,0.00,,,0.00,WeatherCatV1.02B3,2013-02-13 13:43:00,
2013-02-13 07:48:00,45.9,43.1,29.97,ENE,64,1.0,6.0,90,0.00,,,0.00,WeatherCatV1.02B3,2013-02-13 13:48:00,
2013-02-13 07:53:00,45.9,42.8,29.98,ENE,71,4.0,7.0,89,0.00,,,0.00,WeatherCatV1.02B3,2013-02-13 13:53:00,
2013-02-13 07:58:00,45.9,42.8,29.98,ENE,73,0.0,3.0,89,0.00,,,0.00,WeatherCatV1.02B3,2013-02-13 13:58:00,
2013-02-13 08:03:00,45.9,42.8,29.98,ENE,69,3.0,4.0,89,0.00,,,0.00,WeatherCatV1.02B3,2013-02-13 14:03:00,
2013-02-13 08:08:00,46.0,42.9,29.99,SSW,207,0.0,4.0,89,0.00,,,0.00,WeatherCatV1.02B3,2013-02-13 14:08:00,
2013-02-13 08:13:00,46.0,42.9,29.99,East,82,7.0,8.0,89,0.00,,,0.00,WeatherCatV1.02B3,2013-02-13 14:13:00,
2013-02-13 08:18:00,46.0,42.9,30.00,ENE,78,3.0,6.0,89,0.00,,,0.00,WeatherCatV1.02B3,2013-02-13 14:18:00,
2013-02-13 08:23:00,46.0,42.6,30.00,East,79,5.0,7.0,88,0.00,,,0.00,WeatherCatV1.02B3,2013-02-13 14:23:00,
2013-02-13 08:28:00,46.0,42.6,30.00,ENE,68,2.0,7.0,88,0.00,,,0.00,WeatherCatV1.02B3,2013-02-13 14:28:00,
2013-02-13 08:33:00,46.1,42.7,30.00,East,85,6.0,7.0,88,0.00,,,0.00,WeatherCatV1.02B3,2013-02-13 14:33:00,
2013-02-13 08:38:00,46.2,43.1,30.00,ENE,78,4.0,5.0,89,0.00,,,0.00,WeatherCatV1.02B3,2013-02-13 14:38:00,
2013-02-13 08:43:00,46.4,43.0,30.01,East,91,8.0,10.0,88,0.00,,,0.00,WeatherCatV1.02B3,2013-02-13 14:43:00,
2013-02-13 08:48:00,46.4,42.7,30.02,ENE,77,4.0,5.0,87,0.00,,,0.00,WeatherCatV1.02B3,2013-02-13 14:48:00,
2013-02-13 08:53:00,46.5,42.8,30.02,East,87,3.0,8.0,87,0.00,,,0.00,WeatherCatV1.02B3,2013-02-13 14:53:00,
2013-02-13 08:58:00,46.6,42.9,30.02,ENE,58,1.0,5.0,87,0.00,,,0.00,WeatherCatV1.02B3,2013-02-13 14:58:00,
2013-02-13 09:03:00,46.5,42.5,30.03,NE,48,6.0,8.0,86,0.00,,,0.00,WeatherCatV1.02B3,2013-02-13 15:03:00,
2013-02-13 09:08:00,46.5,42.2,30.03,ENE,58,5.0,7.0,85,0.00,,,0.00,WeatherCatV1.02B3,2013-02-13 15:08:00,
2013-02-13 09:13:00,46.5,42.5,30.04,ENE,67,5.0,6.0,86,0.00,,,0.00,WeatherCatV1.02B3,2013-02-13 15:13:00,
2013-02-13 09:18:00,46.5,42.2,30.03,ENE,69,8.0,8.0,85,0.00,,,0.00,WeatherCatV1.02B3,2013-02-13 15:18:00,
2013-02-13 09:23:00,46.6,42.3,30.03,ENE,78,3.0,8.0,85,0.00,,,0.00,WeatherCatV1.02B3,2013-02-13 15:23:00,
2013-02-13 09:28:00,46.7,42.4,30.03,SSE,157,2.0,5.0,85,0.00,,,0.00,WeatherCatV1.02B3,2013-02-13 15:28:00,
2013-02-13 09:33:00,46.8,42.5,30.03,ENE,67,5.0,10.0,85,0.00,,,0.00,WeatherCatV1.02B3,2013-02-13 15:33:00,
2013-02-13 09:38:00,46.8,42.2,30.03,NE,43,6.0,12.0,84,0.00,,,0.00,WeatherCatV1.02B3,2013-02-13 15:38:00,
2013-02-13 09:43:00,46.8,42.2,30.03,ENE,59,0.0,7.0,84,0.00,,,0.00,WeatherCatV1.02B3,2013-02-13 15:43:00,
2013-02-13 09:48:00,46.9,42.3,30.04,ENE,63,0.0,2.0,84,0.00,,,0.00,WeatherCatV1.02B3,2013-02-13 15:48:00,
2013-02-13 09:53:00,46.9,42.3,30.04,ENE,78,5.0,8.0,84,0.00,,,0.00,WeatherCatV1.02B3,2013-02-13 15:53:00,
2013-02-13 09:58:00,47.0,42.4,30.04,SW,234,1.0,4.0,84,0.00,,,0.00,WeatherCatV1.02B3,2013-02-13 15:58:00,
2013-02-13 10:03:00,47.1,42.2,30.04,NE,44,2.0,10.0,83,0.00,,,0.00,WeatherCatV1.02B3,2013-02-13 16:03:00,
2013-02-13 10:08:00,47.3,42.7,30.04,ENE,78,0.0,5.0,84,0.00,,,0.00,WeatherCatV1.02B3,2013-02-13 16:08:00,
2013-02-13 10:13:00,47.2,42.3,30.04,East,95,1.0,5.0,83,0.00,,,0.00,WeatherCatV1.02B3,2013-02-13 16:13:00,
2013-02-13 10:18:00,47.2,42.3,30.05,ENE,67,3.0,6.0,83,0.00,,,0.00,WeatherCatV1.02B3,2013-02-13 16:18:00,
2013-02-13 10:23:00,47.0,42.1,30.04,NE,44,1.0,3.0,83,0.00,,,0.00,WeatherCatV1.02B3,2013-02-13 16:23:00,
2013-02-13 10:28:00,46.9,41.7,30.04,East,91,2.0,10.0,82,0.00,,,0.00,WeatherCatV1.02B3,2013-02-13 16:28:00,
2013-02-13 10:33:00,46.8,41.9,30.04,ENE,67,3.0,6.0,83,0.00,,,0.00,WeatherCatV1.02B3,2013-02-13 16:33:00,
2013-02-13 10:38:00,46.7,41.8,30.04,ENE,67,4.0,13.0,83,0.00,,,0.00,WeatherCatV1.02B3,2013-02-13 16:38:00,
2013-02-13 10:43:00,46.7,41.8,30.04,ENE,76,1.0,9.0,83,0.00,,,0.00,WeatherCatV1.02B3,2013-02-13 16:43:00,
2013-02-13 10:48:00,46.7,41.8,30.03,East,89,6.0,8.0,83,0.00,,,0.00,WeatherCatV1.02B3,2013-02-13 16:48:00,
2013-02-13 10:53:00,46.8,42.2,30.04,East,93,4.0,5.0,84,0.00,,,0.00,WeatherCatV1.02B3,2013-02-13 16:53:00,
2013-02-13 10:58:00,46.8,41.9,30.04,ENE,66,3.0,7.0,83,0.00,,,0.00,WeatherCatV1.02B3,2013-02-13 16:58:00,
2013-02-13 11:03:00,46.7,42.1,30.04,ESE,107,2.0,5.0,84,0.00,,,0.00,WeatherCatV1.02B3,2013-02-13 17:03:00,
2013-02-13 11:08:00,46.5,42.2,30.03,NW,325,1.0,4.0,85,0.00,,,0.00,WeatherCatV1.02B3,2013-02-13 17:08:00,
2013-02-13 11:13:00,46.3,42.0,30.04,NNE,26,0.0,7.0,85,0.00,,,0.00,WeatherCatV1.02B3,2013-02-13 17:13:00,
2013-02-13 11:18:00,46.2,42.2,30.03,ENE,67,4.0,4.0,86,0.00,,,0.00,WeatherCatV1.02B3,2013-02-13 17:18:00,
2013-02-13 11:23:00,46.4,42.4,30.03,South,190,2.0,8.0,86,0.00,,,0.00,WeatherCatV1.02B3,2013-02-13 17:23:00,
2013-02-13 11:28:00,46.7,42.4,30.03,East,92,7.0,8.0,85,0.00,,,0.00,WeatherCatV1.02B3,2013-02-13 17:28:00,
2013-02-13 11:33:00,47.0,42.4,30.03,SSE,153,5.0,7.0,84,0.00,,,0.00,WeatherCatV1.02B3,2013-02-13 17:33:00,
2013-02-13 11:38:00,48.0,43.1,30.03,East,98,5.0,8.0,83,0.00,,,0.00,WeatherCatV1.02B3,2013-02-13 17:38:00,
2013-02-13 11:43:00,48.7,42.8,30.02,ENE,65,2.0,7.0,80,0.00,,,0.00,WeatherCatV1.02B3,2013-02-13 17:43:00,
2013-02-13 11:48:00,49.2,43.3,30.03,SSW,204,0.0,4.0,80,0.00,,,0.00,WeatherCatV1.02B3,2013-02-13 17:48:00,
2013-02-13 11:53:00,49.5,42.9,30.03,ENE,57,1.0,11.0,78,0.00,,,0.00,WeatherCatV1.02B3,2013-02-13 17:53:00,
2013-02-13 11:58:00,49.9,43.3,30.03,ENE,61,2.0,5.0,78,0.00,,,0.00,WeatherCatV1.02B3,2013-02-13 17:58:00,
2013-02-13 12:03:00,49.7,42.4,30.03,South,178,1.0,5.0,76,0.00,,,0.00,WeatherCatV1.02B3,2013-02-13 18:03:00,
2013-02-13 12:08:00,49.4,42.2,30.03,SSW,207,0.0,4.0,76,0.00,,,0.00,WeatherCatV1.02B3,2013-02-13 18:08:00,
2013-02-13 12:13:00,49.4,41.8,30.03,East,92,2.0,7.0,75,0.00,,,0.00,WeatherCatV1.02B3,2013-02-13 18:13:00,
2013-02-13 12:18:00,49.2,41.6,30.03,South,182,2.0,6.0,75,0.00,,,0.00,WeatherCatV1.02B3,2013-02-13 18:18:00,
2013-02-13 12:23:00,49.0,41.4,30.03,NNE,24,1.0,6.0,75,0.00,,,0.00,WeatherCatV1.02B3,2013-02-13 18:23:00,
2013-02-13 12:28:00,48.8,40.9,30.03,SE,140,0.0,7.0,74,0.00,,,0.00,WeatherCatV1.02B3,2013-02-13 18:28:00,
2013-02-13 12:33:00,49.0,42.1,30.03,North,5,0.0,3.0,77,0.00,,,0.00,WeatherCatV1.02B3,2013-02-13 18:33:00,
2013-02-13 12:38:00,49.2,42.0,30.02,NE,55,1.0,7.0,76,0.00,,,0.00,WeatherCatV1.02B3,2013-02-13 18:38:00,
2013-02-13 12:43:00,49.0,41.8,30.02,NNE,15,1.0,5.0,76,0.00,,,0.00,WeatherCatV1.02B3,2013-02-13 18:43:00,
2013-02-13 12:48:00,48.9,42.0,30.02,NE,54,0.0,1.0,77,0.00,,,0.00,WeatherCatV1.02B3,2013-02-13 18:48:00,
2013-02-13 12:53:00,49.1,41.5,30.02,East,95,1.0,11.0,75,0.00,,,0.00,WeatherCatV1.02B3,2013-02-13 18:53:00,
2013-02-13 12:58:00,49.1,41.9,30.02,North,355,3.0,9.0,76,0.00,,,0.00,WeatherCatV1.02B3,2013-02-13 18:58:00,
2013-02-13 13:03:00,48.7,41.5,30.02,SSE,165,0.0,5.0,76,0.00,,,0.00,WeatherCatV1.02B3,2013-02-13 19:03:00,
2013-02-13 13:08:00,48.5,42.0,30.02,ENE,71,3.0,11.0,78,0.00,,,0.00,WeatherCatV1.02B3,2013-02-13 19:08:00,
2013-02-13 13:13:00,48.1,40.9,30.02,SE,143,4.0,9.0,76,0.00,,,0.00,WeatherCatV1.02B3,2013-02-13 19:13:00,
2013-02-13 13:18:00,47.9,41.0,30.02,NE,52,0.0,10.0,77,0.00,,,0.00,WeatherCatV1.02B3,2013-02-13 19:18:00,
2013-02-13 13:23:00,47.9,41.4,30.02,ESE,115,0.0,12.0,78,0.00,,,0.00,WeatherCatV1.02B3,2013-02-13 19:23:00,
2013-02-13 13:28:00,48.1,41.2,30.02,SSE,150,10.0,10.0,77,0.00,,,0.00,WeatherCatV1.02B3,2013-02-13 19:28:00,
2013-02-13 13:33:00,48.5,41.6,30.02,ESE,111,6.0,7.0,77,0.00,,,0.00,WeatherCatV1.02B3,2013-02-13 19:33:00,
2013-02-13 13:38:00,49.1,42.2,30.02,SSE,157,0.0,5.0,77,0.00,,,0.00,WeatherCatV1.02B3,2013-02-13 19:38:00,
2013-02-13 13:43:00,49.3,41.7,30.02,ENE,63,0.0,5.0,75,0.00,,,0.00,WeatherCatV1.02B3,2013-02-13 19:43:00,
2013-02-13 13:48:00,49.0,41.4,30.02,East,94,7.0,11.0,75,0.00,,,0.00,WeatherCatV1.02B3,2013-02-13 19:48:00,
2013-02-13 13:53:00,48.3,40.4,30.02,SE,134,4.0,9.0,74,0.00,,,0.00,WeatherCatV1.02B3,2013-02-13 19:53:00,
2013-02-13 13:58:00,48.2,40.0,30.02,SE,146,1.0,2.0,73,0.00,,,0.00,WeatherCatV1.02B3,2013-02-13 19:58:00,
2013-02-13 14:03:00,48.1,40.2,30.02,East,98,1.0,5.0,74,0.00,,,0.00,WeatherCatV1.02B3,2013-02-13 20:03:00,
2013-02-13 14:08:00,48.0,40.1,30.02,NNW,345,1.0,3.0,74,0.00,,,0.00,WeatherCatV1.02B3,2013-02-13 20:08:00,
2013-02-13 14:13:00,47.9,40.4,30.02,SSE,151,7.0,7.0,75,0.00,,,0.00,WeatherCatV1.02B3,2013-02-13 20:13:00,
2013-02-13 14:18:00,47.9,40.7,30.02,SE,139,13.0,13.0,76,0.00,,,0.00,WeatherCatV1.02B3,2013-02-13 20:18:00,
2013-02-13 14:23:00,47.7,40.5,30.03,ESE,106,4.0,6.0,76,0.00,,,0.00,WeatherCatV1.02B3,2013-02-13 20:23:00,
2013-02-13 14:28:00,47.8,40.6,30.03,SE,134,0.0,1.0,76,0.00,,,0.00,WeatherCatV1.02B3,2013-02-13 20:28:00,
2013-02-13 14:33:00,47.9,40.0,30.03,ENE,68,4.0,10.0,74,0.00,,,0.00,WeatherCatV1.02B3,2013-02-13 20:33:00,
2013-02-13 14:38:00,47.8,39.9,30.03,NE,49,3.0,7.0,74,0.00,,,0.00,WeatherCatV1.02B3,2013-02-13 20:38:00,
2013-02-13 14:43:00,47.7,40.2,30.03,ENE,74,2.0,5.0,75,0.00,,,0.00,WeatherCatV1.02B3,2013-02-13 20:43:00,
2013-02-13 14:48:00,47.6,40.4,30.03,NNW,344,2.0,4.0,76,0.00,,,0.00,WeatherCatV1.02B3,2013-02-13 20:48:00,
2013-02-13 14:53:00,47.6,40.4,30.03,ENE,61,0.0,2.0,76,0.00,,,0.00,WeatherCatV1.02B3,2013-02-13 20:53:00,
2013-02-13 14:58:00,47.7,40.5,30.03,SSE,156,2.0,6.0,76,0.00,,,0.00,WeatherCatV1.02B3,2013-02-13 20:58:00,
2013-02-13 15:03:00,47.7,40.5,30.03,SSE,162,0.0,5.0,76,0.00,,,0.00,WeatherCatV1.02B3,2013-02-13 21:03:00,
2013-02-13 15:08:00,47.6,40.4,30.03,SSE,164,6.0,6.0,76,0.00,,,0.00,WeatherCatV1.02B3,2013-02-13 21:08:00,
2013-02-13 15:13:00,47.6,40.8,30.04,SE,140,4.0,6.0,77,0.00,,,0.00,WeatherCatV1.02B3,2013-02-13 21:13:00,
2013-02-13 15:18:00,47.4,40.6,30.04,South,180,0.0,8.0,77,0.00,,,0.00,WeatherCatV1.02B3,2013-02-13 21:18:00,
2013-02-13 15:23:00,47.4,40.9,30.04,SSE,161,6.0,11.0,78,0.00,,,0.00,WeatherCatV1.02B3,2013-02-13 21:23:00,
2013-02-13 15:28:00,47.2,40.7,30.04,SW,223,0.0,1.0,78,0.00,,,0.00,WeatherCatV1.02B3,2013-02-13 21:28:00,
2013-02-13 15:33:00,47.2,41.0,30.04,ENE,74,3.0,4.0,79,0.00,,,0.00,WeatherCatV1.02B3,2013-02-13 21:33:00,
2013-02-13 15:38:00,47.2,40.7,30.05,SE,131,4.0,12.0,78,0.00,,,0.00,WeatherCatV1.02B3,2013-02-13 21:38:00,
2013-02-13 15:43:00,47.2,40.7,30.05,SE,140,0.0,9.0,78,0.00,,,0.00,WeatherCatV1.02B3,2013-02-13 21:43:00,
2013-02-13 15:48:00,47.3,41.1,30.05,South,175,5.0,6.0,79,0.00,,,0.00,WeatherCatV1.02B3,2013-02-13 21:48:00,
2013-02-13 15:53:00,47.3,41.1,30.05,SSE,148,5.0,9.0,79,0.00,,,0.00,WeatherCatV1.02B3,2013-02-13 21:53:00,
2013-02-13 15:58:00,47.1,40.9,30.05,SSE,164,8.0,9.0,79,0.00,,,0.00,WeatherCatV1.02B3,2013-02-13 21:58:00,
2013-02-13 16:03:00,47.0,40.8,30.05,SSE,159,0.0,1.0,79,0.00,,,0.00,WeatherCatV1.02B3,2013-02-13 22:03:00,
2013-02-13 16:08:00,46.9,40.7,30.06,SSE,158,0.0,5.0,79,0.00,,,0.00,WeatherCatV1.02B3,2013-02-13 22:08:00,
2013-02-13 16:13:00,46.8,40.6,30.06,SSE,156,0.0,1.0,79,0.00,,,0.00,WeatherCatV1.02B3,2013-02-13 22:13:00,
2013-02-13 16:18:00,46.7,40.2,30.06,East,99,0.0,5.0,78,0.00,,,0.00,WeatherCatV1.02B3,2013-02-13 22:18:00,
2013-02-13 16:23:00,46.5,39.7,30.06,East,89,0.0,8.0,77,0.00,,,0.00,WeatherCatV1.02B3,2013-02-13 22:23:00,
2013-02-13 16:28:00,46.5,39.7,30.06,SSE,166,1.0,7.0,77,0.00,,,0.00,WeatherCatV1.02B3,2013-02-13 22:28:00,
2013-02-13 16:33:00,46.5,39.7,30.06,SSE,165,0.0,4.0,77,0.00,,,0.00,WeatherCatV1.02B3,2013-02-13 22:33:00,
2013-02-13 16:38:00,46.5,40.0,30.06,SSE,165,0.0,1.0,78,0.00,,,0.00,WeatherCatV1.02B3,2013-02-13 22:38:00,
2013-02-13 16:43:00,46.5,40.0,30.06,SSE,160,4.0,4.0,78,0.00,,,0.00,WeatherCatV1.02B3,2013-02-13 22:43:00,
2013-02-13 16:48:00,46.6,40.1,30.06,SSE,161,0.0,0.0,78,0.00,,,0.00,WeatherCatV1.02B3,2013-02-13 22:48:00,
2013-02-13 16:53:00,46.6,40.1,30.06,South,184,0.0,3.0,78,0.00,,,0.00,WeatherCatV1.02B3,2013-02-13 22:53:00,
2013-02-13 16:58:00,46.5,39.7,30.06,SSE,154,1.0,4.0,77,0.00,,,0.00,WeatherCatV1.02B3,2013-02-13 22:58:00,
2013-02-13 17:03:00,46.4,39.6,30.06,South,171,5.0,5.0,77,0.00,,,0.00,WeatherCatV1.02B3,2013-02-13 23:03:00,
2013-02-13 17:08:00,46.3,39.5,30.07,South,175,0.0,4.0,77,0.00,,,0.00,WeatherCatV1.02B3,2013-02-13 23:08:00,
2013-02-13 17:13:00,46.2,39.7,30.07,South,171,2.0,2.0,78,0.00,,,0.00,WeatherCatV1.02B3,2013-02-13 23:13:00,
2013-02-13 17:18:00,46.2,39.4,30.06,South,171,5.0,5.0,77,0.00,,,0.00,WeatherCatV1.02B3,2013-02-13 23:18:00,
2013-02-13 17:23:00,46.1,39.3,30.07,SSE,159,4.0,7.0,77,0.00,,,0.00,WeatherCatV1.02B3,2013-02-13 23:23:00,
2013-02-13 17:28:00,46.0,38.9,30.07,SSE,157,0.0,4.0,76,0.00,,,0.00,WeatherCatV1.02B3,2013-02-13 23:28:00,
2013-02-13 17:33:00,45.8,39.0,30.07,SSE,159,5.0,7.0,77,0.00,,,0.00,WeatherCatV1.02B3,2013-02-13 23:33:00,
2013-02-13 17:38:00,45.7,38.9,30.07,SSE,153,0.0,2.0,77,0.00,,,0.00,WeatherCatV1.02B3,2013-02-13 23:38:00,
2013-02-13 17:43:00,45.5,38.7,30.07,SSE,154,0.0,5.0,77,0.00,,,0.00,WeatherCatV1.02B3,2013-02-13 23:43:00,
2013-02-13 17:48:00,45.3,38.5,30.07,SSE,163,2.0,5.0,77,0.00,,,0.00,WeatherCatV1.02B3,2013-02-13 23:48:00,
2013-02-13 17:53:00,45.1,38.7,30.07,SSE,153,1.0,4.0,78,0.00,,,0.00,WeatherCatV1.02B3,2013-02-13 23:53:00,
2013-02-13 17:58:00,45.0,38.6,30.07,SSE,153,0.0,0.0,78,0.00,,,0.00,WeatherCatV1.02B3,2013-02-13 23:58:00,
2013-02-13 18:03:00,44.7,38.6,30.07,SSE,153,0.0,0.0,79,0.00,,,0.00,WeatherCatV1.02B3,2013-02-14 00:03:00,
2013-02-13 18:08:00,44.5,38.4,30.07,SSE,154,1.0,4.0,79,0.00,,,0.00,WeatherCatV1.02B3,2013-02-14 00:08:00,
2013-02-13 18:13:00,44.4,38.6,30.07,SSE,154,0.0,0.0,80,0.00,,,0.00,WeatherCatV1.02B3,2013-02-14 00:13:00,
2013-02-13 18:18:00,44.4,38.9,30.07,SSE,153,0.0,1.0,81,0.00,,,0.00,WeatherCatV1.02B3,2013-02-14 00:18:00,
2013-02-13 18:23:00,44.5,39.0,30.07,SSE,153,0.0,0.0,81,0.00,,,0.00,WeatherCatV1.02B3,2013-02-14 00:23:00,
2013-02-13 18:28:00,44.5,38.7,30.08,SSE,153,0.0,4.0,80,0.00,,,0.00,WeatherCatV1.02B3,2013-02-14 00:28:00,
2013-02-13 18:33:00,44.7,38.9,30.08,SSE,153,0.0,0.0,80,0.00,,,0.00,WeatherCatV1.02B3,2013-02-14 00:33:00,
2013-02-13 18:38:00,44.7,38.6,30.08,SSE,153,4.0,4.0,79,0.00,,,0.00,WeatherCatV1.02B3,2013-02-14 00:38:00,
2013-02-13 18:43:00,44.8,38.7,30.08,SSE,155,0.0,1.0,79,0.00,,,0.00,WeatherCatV1.02B3,2013-02-14 00:43:00,
2013-02-13 18:48:00,44.9,38.8,30.08,SSE,155,0.0,1.0,79,0.00,,,0.00,WeatherCatV1.02B3,2013-02-14 00:48:00,
2013-02-13 18:53:00,44.9,38.5,30.08,SSE,150,2.0,5.0,78,0.00,,,0.00,WeatherCatV1.02B3,2013-02-14 00:53:00,
2013-02-13 18:58:00,44.9,38.5,30.08,SSE,150,1.0,1.0,78,0.00,,,0.00,WeatherCatV1.02B3,2013-02-14 00:58:00,
2013-02-13 19:03:00,44.9,38.8,30.08,SSE,150,0.0,1.0,79,0.00,,,0.00,WeatherCatV1.02B3,2013-02-14 01:03:00,
2013-02-13 19:08:00,44.8,38.7,30.09,South,171,0.0,2.0,79,0.00,,,0.00,WeatherCatV1.02B3,2013-02-14 01:08:00,
2013-02-13 19:13:00,44.8,38.7,30.09,South,178,0.0,2.0,79,0.00,,,0.00,WeatherCatV1.02B3,2013-02-14 01:13:00,
2013-02-13 19:18:00,44.8,38.4,30.09,SSE,167,1.0,5.0,78,0.00,,,0.00,WeatherCatV1.02B3,2013-02-14 01:18:00,
2013-02-13 19:23:00,44.8,38.0,30.09,South,169,1.0,2.0,77,0.00,,,0.00,WeatherCatV1.02B3,2013-02-14 01:23:00,
2013-02-13 19:28:00,44.8,38.4,30.09,South,169,1.0,2.0,78,0.00,,,0.00,WeatherCatV1.02B3,2013-02-14 01:28:00,
2013-02-13 19:33:00,44.8,38.4,30.09,South,169,0.0,1.0,78,0.00,,,0.00,WeatherCatV1.02B3,2013-02-14 01:33:00,
2013-02-13 19:38:00,44.8,38.4,30.09,South,169,0.0,0.0,78,0.00,,,0.00,WeatherCatV1.02B3,2013-02-14 01:38:00,
2013-02-13 19:43:00,44.7,38.3,30.09,South,169,0.0,0.0,78,0.00,,,0.00,WeatherCatV1.02B3,2013-02-14 01:43:00,
2013-02-13 19:48:00,44.7,38.3,30.09,South,169,0.0,0.0,78,0.00,,,0.00,WeatherCatV1.02B3,2013-02-14 01:48:00,
2013-02-13 19:53:00,44.7,38.3,30.09,South,169,0.0,0.0,78,0.00,,,0.00,WeatherCatV1.02B3,2013-02-14 01:53:00,
2013-02-13 19:58:00,44.6,38.2,30.09,South,169,0.0,0.0,78,0.00,,,0.00,WeatherCatV1.02B3,2013-02-14 01:58:00,
2013-02-13 20:03:00,44.5,38.1,30.09,South,169,0.0,4.0,78,0.00,,,0.00,WeatherCatV1.02B3,2013-02-14 02:03:00,
2013-02-13 20:08:00,44.3,38.2,30.09,South,169,0.0,0.0,79,0.00,,,0.00,WeatherCatV1.02B3,2013-02-14 02:08:00,
2013-02-13 20:13:00,44.1,38.0,30.09,South,169,0.0,0.0,79,0.00,,,0.00,WeatherCatV1.02B3,2013-02-14 02:13:00,
2013-02-13 20:18:00,43.8,37.7,30.09,South,169,0.0,0.0,79,0.00,,,0.00,WeatherCatV1.02B3,2013-02-14 02:18:00,
2013-02-13 20:23:00,43.6,37.5,30.09,South,169,0.0,0.0,79,0.00,,,0.00,WeatherCatV1.02B3,2013-02-14 02:23:00,
2013-02-13 20:28:00,43.4,37.6,30.10,South,169,0.0,0.0,80,0.00,,,0.00,WeatherCatV1.02B3,2013-02-14 02:28:00,
2013-02-13 20:33:00,43.1,37.7,30.10,South,169,0.0,0.0,81,0.00,,,0.00,WeatherCatV1.02B3,2013-02-14 02:33:00,
2013-02-13 20:38:00,42.8,37.7,30.10,South,169,0.0,0.0,82,0.00,,,0.00,WeatherCatV1.02B3,2013-02-14 02:38:00,
2013-02-13 20:43:00,42.6,37.8,30.10,South,169,0.0,0.0,83,0.00,,,0.00,WeatherCatV1.02B3,2013-02-14 02:43:00,
2013-02-13 20:48:00,42.4,37.9,30.10,South,169,0.0,0.0,84,0.00,,,0.00,WeatherCatV1.02B3,2013-02-14 02:48:00,
2013-02-13 20:53:00,42.2,37.7,30.10,South,169,0.0,0.0,84,0.00,,,0.00,WeatherCatV1.02B3,2013-02-14 02:53:00,
2013-02-13 20:58:00,42.0,37.8,30.10,South,169,0.0,0.0,85,0.00,,,0.00,WeatherCatV1.02B3,2013-02-14 02:58:00,
2013-02-13 21:03:00,41.8,37.6,30.10,South,169,0.0,0.0,85,0.00,,,0.00,WeatherCatV1.02B3,2013-02-14 03:03:00,
2013-02-13 21:08:00,41.6,37.4,30.10,South,169,0.0,0.0,85,0.00,,,0.00,WeatherCatV1.02B3,2013-02-14 03:08:00,
2013-02-13 21:13:00,41.4,37.2,30.10,South,169,0.0,0.0,85,0.00,,,0.00,WeatherCatV1.02B3,2013-02-14 03:13:00,
2013-02-13 21:18:00,41.2,37.3,30.10,South,169,0.0,0.0,86,0.00,,,0.00,WeatherCatV1.02B3,2013-02-14 03:18:00,
2013-02-13 21:23:00,40.9,37.0,30.10,South,169,0.0,0.0,86,0.00,,,0.00,WeatherCatV1.02B3,2013-02-14 03:23:00,
2013-02-13 21:28:00,40.6,37.0,30.10,South,169,0.0,0.0,87,0.00,,,0.00,WeatherCatV1.02B3,2013-02-14 03:28:00,
2013-02-13 21:33:00,40.4,36.8,30.11,South,169,0.0,0.0,87,0.00,,,0.00,WeatherCatV1.02B3,2013-02-14 03:33:00,
2013-02-13 21:38:00,40.1,36.5,30.11,South,169,0.0,0.0,87,0.00,,,0.00,WeatherCatV1.02B3,2013-02-14 03:38:00,
2013-02-13 21:43:00,39.8,36.5,30.11,South,169,0.0,0.0,88,0.00,,,0.00,WeatherCatV1.02B3,2013-02-14 03:43:00,
2013-02-13 21:48:00,39.7,36.4,30.11,South,169,0.0,0.0,88,0.00,,,0.00,WeatherCatV1.02B3,2013-02-14 03:48:00,
2013-02-13 21:53:00,39.5,36.2,30.11,South,169,0.0,0.0,88,0.00,,,0.00,WeatherCatV1.02B3,2013-02-14 03:53:00,
2013-02-13 21:58:00,39.3,36.0,30.11,South,169,0.0,0.0,88,0.00,,,0.00,WeatherCatV1.02B3,2013-02-14 03:58:00,
2013-02-13 22:03:00,39.1,35.9,30.11,South,169,0.0,0.0,88,0.00,,,0.00,WeatherCatV1.02B3,2013-02-14 04:03:00,
2013-02-13 22:08:00,38.8,35.6,30.11,South,169,0.0,0.0,88,0.00,,,0.00,WeatherCatV1.02B3,2013-02-14 04:08:00,
2013-02-13 22:13:00,38.7,35.7,30.11,South,169,0.0,0.0,89,0.00,,,0.00,WeatherCatV1.02B3,2013-02-14 04:13:00,
2013-02-13 22:18:00,38.4,35.4,30.11,South,169,0.0,0.0,89,0.00,,,0.00,WeatherCatV1.02B3,2013-02-14 04:18:00,
2013-02-13 22:23:00,38.2,35.2,30.11,South,169,0.0,0.0,89,0.00,,,0.00,WeatherCatV1.02B3,2013-02-14 04:23:00,
2013-02-13 22:28:00,38.0,35.1,30.11,South,169,0.0,0.0,89,0.00,,,0.00,WeatherCatV1.02B3,2013-02-14 04:28:00,
2013-02-13 22:33:00,37.9,35.2,30.11,South,169,0.0,0.0,90,0.00,,,0.00,WeatherCatV1.02B3,2013-02-14 04:33:00,
2013-02-13 22:38:00,37.8,35.1,30.11,South,169,0.0,0.0,90,0.00,,,0.00,WeatherCatV1.02B3,2013-02-14 04:38:00,
2013-02-13 22:43:00,37.6,34.9,30.11,South,169,0.0,0.0,90,0.00,,,0.00,WeatherCatV1.02B3,2013-02-14 04:43:00,
2013-02-13 22:48:00,37.4,34.7,30.11,South,169,0.0,0.0,90,0.00,,,0.00,WeatherCatV1.02B3,2013-02-14 04:48:00,
2013-02-13 22:53:00,37.2,34.5,30.12,South,169,0.0,0.0,90,0.00,,,0.00,WeatherCatV1.02B3,2013-02-14 04:53:00,
2013-02-13 22:58:00,37.1,34.7,30.12,South,169,0.0,0.0,91,0.00,,,0.00,WeatherCatV1.02B3,2013-02-14 04:58:00,
2013-02-13 23:00:00,37.0,34.6,30.12,South,169,0.0,0.0,91,0.00,,,0.00,WeatherCatV1.02B3,2013-02-14 05:00:00,
2013-02-13 23:05:00,37.0,34.6,30.12,South,169,0.0,0.0,91,0.00,,,0.00,WeatherCatV1.02B3,2013-02-14 05:05:00,
2013-02-13 23:10:00,36.9,34.5,30.12,South,169,0.0,0.0,91,0.00,,,0.00,WeatherCatV1.02B3,2013-02-14 05:10:00,
2013-02-13 23:15:00,36.9,34.8,30.12,South,169,0.0,0.0,92,0.00,,,0.00,WeatherCatV1.02B3,2013-02-14 05:15:00,
2013-02-13 23:20:00,36.9,34.8,30.12,South,169,0.0,0.0,92,0.00,,,0.00,WeatherCatV1.02B3,2013-02-14 05:20:00,
2013-02-13 23:25:00,36.8,34.7,30.12,South,169,0.0,0.0,92,0.00,,,0.00,WeatherCatV1.02B3,2013-02-14 05:25:00,
2013-02-13 23:30:00,36.7,34.6,30.12,South,169,0.0,0.0,92,0.00,,,0.00,WeatherCatV1.02B3,2013-02-14 05:30:00,
2013-02-13 23:35:00,36.6,34.5,30.12,South,169,0.0,0.0,92,0.00,,,0.00,WeatherCatV1.02B3,2013-02-14 05:35:00,
2013-02-13 23:40:00,36.5,34.4,30.12,South,169,0.0,0.0,92,0.00,,,0.00,WeatherCatV1.02B3,2013-02-14 05:40:00,
2013-02-13 23:45:00,36.3,34.2,30.12,South,169,0.0,0.0,92,0.00,,,0.00,WeatherCatV1.02B3,2013-02-14 05:45:00,
2013-02-13 23:50:00,36.1,34.0,30.12,South,169,0.0,0.0,92,0.00,,,0.00,WeatherCatV1.02B3,2013-02-14 05:50:00,
2013-02-13 23:55:00,35.9,33.8,30.12,South,169,0.0,0.0,92,0.00,,,0.00,WeatherCatV1.02B3,2013-02-14 05:55:00,